| time (UTC) | temp F | wind direction | speed MPH | gust MPH | rain 1hr in | rain 24hr in | rain mn in | humidity % | barometer mb |
| 20260505090003 | 72 | 0 | 0.0 | 0.0 | 0.00 | 0.00 | 0.00 | 43 | 1012.7 |
| 20260505085800 | 54 | 61 | 0.0 | 1.0 | 0.00 | 0.00 | 0.00 | 89 | 1016.2 |
| 20260505085258 | 54 | 61 | 0.0 | 1.0 | 0.00 | 0.00 | 0.00 | 89 | 1016.1 |
| 20260505084756 | 54 | 81 | 0.0 | 1.0 | 0.00 | 0.00 | 0.00 | 88 | 1016.1 |
| 20260505084255 | 54 | 91 | 0.0 | 0.0 | 0.00 | 0.00 | 0.00 | 88 | 1016.3 |
| 20260505083751 | 54 | 59 | 1.0 | 1.0 | 0.00 | 0.00 | 0.00 | 88 | 1016.0 |
| 20260505083248 | 54 | 91 | 0.0 | 0.0 | 0.00 | 0.00 | 0.00 | 88 | 1015.8 |
| 20260505083003 | 72 | 0 | 0.0 | 0.0 | 0.00 | 0.00 | 0.00 | 43 | 1012.6 |
| 20260505082744 | 54 | 93 | 0.0 | 1.0 | 0.00 | 0.00 | 0.00 | 88 | 1015.9 |
| 20260505082241 | 54 | 92 | 0.0 | 0.0 | 0.00 | 0.00 | 0.00 | 87 | 1016.1 |
| 20260505081737 | 55 | 92 | 0.0 | 0.0 | 0.00 | 0.00 | 0.00 | 87 | 1016.1 |
| 20260505081235 | 55 | 86 | 0.0 | 0.0 | 0.00 | 0.00 | 0.00 | 87 | 1016.0 |
| 20260505080732 | 55 | 86 | 0.0 | 0.0 | 0.00 | 0.00 | 0.00 | 86 | 1015.9 |
| 20260505080227 | 55 | 89 | 0.0 | 0.0 | 0.00 | 0.00 | 0.00 | 86 | 1015.9 |
| 20260505080003 | 72 | 0 | 0.0 | 0.0 | 0.00 | 0.00 | 0.00 | 43 | 1012.6 |
| 20260505075723 | 55 | 89 | 0.0 | 0.0 | 0.00 | 0.00 | 0.00 | 86 | 1015.8 |
| 20260505075220 | 55 | 85 | 0.0 | 0.0 | 0.00 | 0.00 | 0.00 | 85 | 1015.9 |
| 20260505074718 | 55 | 85 | 0.0 | 0.0 | 0.00 | 0.00 | 0.00 | 85 | 1015.7 |
| 20260505074214 | 55 | 87 | 0.0 | 0.0 | 0.00 | 0.00 | 0.00 | 84 | 1015.8 |
| 20260505073712 | 55 | 81 | 0.0 | 0.0 | 0.00 | 0.00 | 0.00 | 83 | 1015.6 |
| 20260505073210 | 56 | 81 | 0.0 | 0.0 | 0.00 | 0.00 | 0.00 | 83 | 1015.7 |
| 20260505073003 | 72 | 0 | 0.0 | 0.0 | 0.00 | 0.00 | 0.00 | 43 | 1012.4 |
| 20260505072705 | 56 | 81 | 0.0 | 0.0 | 0.00 | 0.00 | 0.00 | 82 | 1015.5 |
| 20260505072202 | 56 | 80 | 0.0 | 0.0 | 0.00 | 0.00 | 0.00 | 81 | 1015.8 |
| 20260505071657 | 56 | 79 | 0.0 | 0.0 | 0.00 | 0.00 | 0.00 | 81 | 1015.8 |
| 20260505071155 | 57 | 73 | 0.0 | 0.0 | 0.00 | 0.00 | 0.00 | 81 | 1015.6 |
| 20260505070653 | 56 | 89 | 0.0 | 0.0 | 0.00 | 0.00 | 0.00 | 80 | 1015.9 |
| 20260505070149 | 57 | 87 | 0.0 | 0.0 | 0.00 | 0.00 | 0.00 | 81 | 1015.7 |
| 20260505070003 | 72 | 0 | 0.0 | 0.0 | 0.00 | 0.00 | 0.00 | 43 | 1012.5 |
| 20260505065645 | 57 | 87 | 0.0 | 0.0 | 0.00 | 0.00 | 0.00 | 80 | 1015.7 |
| 20260505065142 | 57 | 86 | 0.0 | 0.0 | 0.00 | 0.00 | 0.00 | 80 | 1015.8 |
| 20260505064638 | 57 | 86 | 0.0 | 0.0 | 0.00 | 0.00 | 0.00 | 79 | 1015.8 |
| 20260505064136 | 57 | 86 | 0.0 | 1.0 | 0.00 | 0.00 | 0.00 | 78 | 1015.9 |
| 20260505063634 | 58 | 86 | 0.0 | 0.0 | 0.00 | 0.00 | 0.00 | 77 | 1015.8 |
| 20260505063130 | 58 | 86 | 0.0 | 1.0 | 0.00 | 0.00 | 0.00 | 77 | 1015.9 |
| 20260505063003 | 72 | 0 | 0.0 | 0.0 | 0.00 | 0.00 | 0.00 | 43 | 1012.7 |
| 20260505062626 | 58 | 86 | 0.0 | 0.0 | 0.00 | 0.00 | 0.00 | 76 | 1016.0 |
| 20260505062124 | 58 | 79 | 0.0 | 1.0 | 0.00 | 0.00 | 0.00 | 76 | 1016.2 |
| 20260505061621 | 58 | 87 | 0.0 | 0.0 | 0.00 | 0.00 | 0.00 | 75 | 1016.1 |
| 20260505061119 | 59 | 87 | 0.0 | 1.0 | 0.00 | 0.00 | 0.00 | 74 | 1016.2 |
| 20260505060616 | 58 | 81 | 0.0 | 1.0 | 0.00 | 0.00 | 0.00 | 74 | 1016.4 |
| 20260505060113 | 58 | 91 | 0.0 | 1.0 | 0.00 | 0.00 | 0.00 | 74 | 1016.2 |
| 20260505060003 | 72 | 0 | 0.0 | 0.0 | 0.00 | 0.00 | 0.00 | 43 | 1013.0 |
| 20260505055608 | 58 | 83 | 0.0 | 0.0 | 0.00 | 0.00 | 0.00 | 74 | 1016.2 |
| 20260505055105 | 59 | 90 | 0.0 | 0.0 | 0.00 | 0.00 | 0.00 | 72 | 1016.2 |
| 20260505054602 | 59 | 89 | 0.0 | 0.0 | 0.00 | 0.00 | 0.00 | 72 | 1016.2 |
| 20260505054100 | 59 | 89 | 0.0 | 0.0 | 0.00 | 0.00 | 0.00 | 71 | 1016.2 |
| 20260505053557 | 59 | 89 | 0.0 | 0.0 | 0.00 | 0.00 | 0.00 | 71 | 1016.3 |
| 20260505053054 | 59 | 89 | 0.0 | 1.0 | 0.00 | 0.00 | 0.00 | 70 | 1016.3 |
| 20260505053003 | 72 | 0 | 0.0 | 0.0 | 0.00 | 0.00 | 0.00 | 43 | 1013.1 |
| 20260505052550 | 59 | 88 | 0.0 | 1.0 | 0.00 | 0.00 | 0.00 | 69 | 1016.1 |
| 20260505052048 | 59 | 99 | 0.0 | 1.0 | 0.00 | 0.00 | 0.00 | 69 | 1016.4 |
| 20260505051545 | 60 | 89 | 0.0 | 1.0 | 0.00 | 0.00 | 0.00 | 68 | 1016.4 |
| 20260505051043 | 60 | 93 | 1.0 | 1.0 | 0.00 | 0.00 | 0.00 | 68 | 1016.3 |
| 20260505050541 | 60 | 85 | 0.0 | 0.0 | 0.00 | 0.00 | 0.00 | 67 | 1016.4 |
| 20260505041509 | 55 | 91 | 0.0 | 1.0 | 0.00 | 0.00 | 0.00 | 73 | 1016.1 |
| 20260505041006 | 55 | 74 | 0.0 | 1.0 | 0.00 | 0.00 | 0.00 | 72 | 1016.0 |
| 20260505040503 | 55 | 81 | 0.0 | 1.0 | 0.00 | 0.00 | 0.00 | 72 | 1016.2 |
| 20260505040005 | 72 | 0 | 0.0 | 0.0 | 0.00 | 0.00 | 0.00 | 43 | 1012.9 |
| 20260505040000 | 56 | 81 | 0.0 | 0.0 | 0.00 | 0.00 | 0.00 | 74 | 1016.3 |
| 20260505035456 | 56 | 81 | 0.0 | 0.0 | 0.00 | 0.00 | 0.00 | 68 | 1016.1 |
| 20260505034953 | 56 | 81 | 0.0 | 0.0 | 0.00 | 0.00 | 0.00 | 68 | 1016.2 |
| 20260505034449 | 56 | 81 | 0.0 | 0.0 | 0.00 | 0.00 | 0.00 | 70 | 1016.3 |
| 20260505033947 | 56 | 81 | 0.0 | 0.0 | 0.00 | 0.00 | 0.00 | 69 | 1016.2 |
| 20260505033443 | 56 | 82 | 0.0 | 0.0 | 0.00 | 0.00 | 0.00 | 67 | 1016.1 |
| 20260505033003 | 72 | 0 | 0.0 | 0.0 | 0.00 | 0.00 | 0.00 | 43 | 1013.1 |
| 20260505032942 | 56 | 89 | 0.0 | 0.0 | 0.00 | 0.00 | 0.00 | 70 | 1016.3 |
| 20260505032439 | 56 | 59 | 0.0 | 1.0 | 0.00 | 0.00 | 0.00 | 65 | 1016.2 |
| 20260505031935 | 57 | 28 | 1.0 | 1.0 | 0.00 | 0.00 | 0.00 | 66 | 1016.4 |
| 20260505031432 | 57 | 37 | 1.0 | 1.0 | 0.00 | 0.00 | 0.00 | 66 | 1016.2 |
| 20260505030929 | 57 | 94 | 0.0 | 1.0 | 0.00 | 0.00 | 0.00 | 67 | 1016.2 |
| 20260505030425 | 57 | 91 | 0.0 | 1.0 | 0.00 | 0.00 | 0.00 | 66 | 1016.3 |
| 20260505030003 | 72 | 0 | 0.0 | 0.0 | 0.00 | 0.00 | 0.00 | 43 | 1013.1 |
| 20260505025920 | 57 | 98 | 0.0 | 2.0 | 0.00 | 0.00 | 0.00 | 67 | 1016.1 |
| 20260505025418 | 57 | 88 | 0.0 | 1.0 | 0.00 | 0.00 | 0.00 | 67 | 1016.4 |
| 20260505024917 | 57 | 127 | 1.0 | 1.0 | 0.00 | 0.00 | 0.00 | 66 | 1016.4 |
| 20260505024414 | 57 | 105 | 1.0 | 1.0 | 0.00 | 0.00 | 0.00 | 66 | 1016.3 |
| 20260505023911 | 57 | 95 | 0.0 | 1.0 | 0.00 | 0.00 | 0.00 | 67 | 1016.3 |
| 20260505023408 | 57 | 13 | 0.0 | 1.0 | 0.00 | 0.00 | 0.00 | 66 | 1016.3 |
| 20260505023003 | 72 | 0 | 0.0 | 0.0 | 0.00 | 0.00 | 0.00 | 43 | 1013.0 |
| 20260505022905 | 58 | 155 | 1.0 | 1.0 | 0.00 | 0.00 | 0.00 | 68 | 1016.0 |
| 20260505022402 | 58 | 71 | 0.0 | 1.0 | 0.00 | 0.00 | 0.00 | 68 | 1016.2 |
| 20260505021859 | 58 | 82 | 1.0 | 1.0 | 0.00 | 0.00 | 0.00 | 70 | 1016.1 |
| 20260505021355 | 58 | 62 | 1.0 | 1.0 | 0.00 | 0.00 | 0.00 | 71 | 1016.2 |
| 20260505020851 | 58 | 59 | 0.0 | 1.0 | 0.00 | 0.00 | 0.00 | 70 | 1015.9 |
| 20260505020347 | 58 | 67 | 1.0 | 1.0 | 0.00 | 0.00 | 0.00 | 69 | 1016.0 |
| 20260505020004 | 72 | 0 | 0.0 | 0.0 | 0.00 | 0.00 | 0.00 | 43 | 1012.7 |
| 20260505015844 | 59 | 67 | 0.0 | 1.0 | 0.00 | 0.00 | 0.00 | 68 | 1015.9 |
| 20260505015341 | 59 | 68 | 0.0 | 1.0 | 0.00 | 0.00 | 0.00 | 67 | 1015.8 |
| 20260505014839 | 59 | 48 | 1.0 | 1.0 | 0.00 | 0.00 | 0.00 | 67 | 1015.8 |
| 20260505014335 | 59 | 62 | 0.0 | 1.0 | 0.00 | 0.00 | 0.00 | 67 | 1015.8 |
| 20260505013832 | 59 | 61 | 0.0 | 1.0 | 0.00 | 0.00 | 0.00 | 65 | 1015.5 |
| 20260505013329 | 60 | 51 | 1.0 | 1.0 | 0.00 | 0.00 | 0.00 | 65 | 1015.7 |
| 20260505013003 | 72 | 0 | 0.0 | 0.0 | 0.00 | 0.00 | 0.00 | 43 | 1012.4 |
| 20260505012828 | 60 | 83 | 0.0 | 0.0 | 0.00 | 0.00 | 0.00 | 65 | 1015.4 |
| 20260505012325 | 60 | 85 | 0.0 | 1.0 | 0.00 | 0.00 | 0.00 | 64 | 1015.6 |
| 20260505011820 | 60 | 110 | 1.0 | 1.0 | 0.00 | 0.00 | 0.00 | 62 | 1015.6 |
| 20260505011318 | 61 | 68 | 0.0 | 1.0 | 0.00 | 0.00 | 0.00 | 61 | 1015.6 |
| 20260505010814 | 61 | 99 | 1.0 | 1.0 | 0.00 | 0.00 | 0.00 | 64 | 1015.5 |
| 20260505010310 | 62 | 88 | 0.0 | 1.0 | 0.00 | 0.00 | 0.00 | 61 | 1015.4 |
| 20260505010002 | 72 | 0 | 0.0 | 0.0 | 0.00 | 0.00 | 0.00 | 43 | 1012.2 |
| 20260505005806 | 62 | 84 | 0.0 | 1.0 | 0.00 | 0.00 | 0.00 | 63 | 1015.3 |
| 20260505005304 | 62 | 92 | 0.0 | 1.0 | 0.00 | 0.00 | 0.00 | 59 | 1015.3 |
| 20260505004801 | 63 | 74 | 0.0 | 1.0 | 0.00 | 0.00 | 0.00 | 62 | 1015.3 |
| 20260505004256 | 64 | 74 | 0.0 | 1.0 | 0.00 | 0.00 | 0.00 | 60 | 1015.0 |
| 20260505003754 | 65 | 81 | 0.0 | 1.0 | 0.00 | 0.00 | 0.00 | 59 | 1015.4 |
| 20260505003252 | 65 | 80 | 0.0 | 1.0 | 0.00 | 0.00 | 0.00 | 56 | 1015.0 |
| 20260505003001 | 72 | 0 | 0.0 | 0.0 | 0.00 | 0.00 | 0.00 | 43 | 1012.1 |
| 20260505002748 | 66 | 81 | 0.0 | 0.0 | 0.00 | 0.00 | 0.00 | 53 | 1015.2 |
| 20260505002245 | 67 | 81 | 0.0 | 0.0 | 0.00 | 0.00 | 0.00 | 51 | 1014.9 |
| 20260505001743 | 68 | 81 | 0.0 | 0.0 | 0.00 | 0.00 | 0.00 | 52 | 1014.9 |
| 20260505001240 | 68 | 81 | 0.0 | 0.0 | 0.00 | 0.00 | 0.00 | 51 | 1015.1 |
| 20260505000737 | 70 | 81 | 0.0 | 0.0 | 0.00 | 0.00 | 0.00 | 49 | 1015.2 |
| 20260505000235 | 71 | 81 | 0.0 | 0.0 | 0.00 | 0.00 | 0.00 | 44 | 1015.2 |
| 20260505000002 | 72 | 162 | 0.0 | 0.0 | 0.00 | 0.00 | 0.00 | 40 | 1012.1 |
| 20260504235731 | 72 | 81 | 0.0 | 0.0 | 0.00 | 0.00 | 0.00 | 43 | 1015.2 |
| 20260504235227 | 73 | 81 | 0.0 | 0.0 | 0.00 | 0.00 | 0.00 | 41 | 1015.2 |
| 20260504234725 | 74 | 81 | 0.0 | 0.0 | 0.00 | 0.00 | 0.00 | 40 | 1015.2 |
| 20260504234222 | 75 | 81 | 0.0 | 0.0 | 0.00 | 0.00 | 0.00 | 38 | 1015.3 |
| 20260504233718 | 76 | 81 | 0.0 | 0.0 | 0.00 | 0.00 | 0.00 | 38 | 1015.2 |
| 20260504233214 | 77 | 81 | 0.0 | 0.0 | 0.00 | 0.00 | 0.00 | 36 | 1015.4 |
| 20260504232711 | 77 | 75 | 0.0 | 0.0 | 0.00 | 0.00 | 0.00 | 34 | 1015.2 |
| 20260504232208 | 77 | 83 | 0.0 | 2.0 | 0.00 | 0.00 | 0.00 | 33 | 1015.2 |
| 20260504231705 | 77 | 69 | 0.0 | 2.0 | 0.00 | 0.00 | 0.00 | 33 | 1015.0 |
| 20260504231201 | 77 | 79 | 0.0 | 1.0 | 0.00 | 0.00 | 0.00 | 34 | 1014.8 |
| 20260504230657 | 77 | 89 | 0.0 | 1.0 | 0.00 | 0.00 | 0.00 | 32 | 1014.9 |
| 20260504230156 | 77 | 68 | 0.0 | 1.0 | 0.00 | 0.00 | 0.00 | 35 | 1015.1 |
| 20260504230002 | 76 | 166 | 0.0 | 0.0 | 0.00 | 0.00 | 0.00 | 32 | 1012.0 |
| 20260504225654 | 77 | 88 | 0.0 | 1.0 | 0.00 | 0.00 | 0.00 | 36 | 1015.0 |
| 20260504225150 | 76 | 84 | 0.0 | 1.0 | 0.00 | 0.00 | 0.00 | 34 | 1015.2 |
| 20260504224647 | 76 | 83 | 0.0 | 0.0 | 0.00 | 0.00 | 0.00 | 34 | 1015.1 |
| 20260504224144 | 77 | 73 | 0.0 | 1.0 | 0.00 | 0.00 | 0.00 | 34 | 1015.0 |
| 20260504223641 | 78 | 95 | 0.0 | 2.0 | 0.00 | 0.00 | 0.00 | 33 | 1014.9 |
| 20260504223137 | 79 | 125 | 2.0 | 4.0 | 0.00 | 0.00 | 0.00 | 31 | 1015.1 |
| 20260504223002 | 79 | 203 | 0.0 | 0.0 | 0.00 | 0.00 | 0.00 | 28 | 1011.8 |
| 20260504222634 | 79 | 149 | 1.0 | 2.0 | 0.00 | 0.00 | 0.00 | 33 | 1015.1 |
| 20260504222131 | 79 | 67 | 0.0 | 2.0 | 0.00 | 0.00 | 0.00 | 33 | 1014.9 |
| 20260504221628 | 80 | 104 | 1.0 | 2.0 | 0.00 | 0.00 | 0.00 | 30 | 1015.1 |
| 20260504221125 | 81 | 98 | 2.0 | 2.0 | 0.00 | 0.00 | 0.00 | 31 | 1015.1 |
| 20260504220621 | 81 | 130 | 1.0 | 2.0 | 0.00 | 0.00 | 0.00 | 31 | 1015.1 |
| 20260504220120 | 79 | 79 | 0.0 | 4.0 | 0.00 | 0.00 | 0.00 | 31 | 1015.0 |
| 20260504220002 | 79 | 186 | 0.0 | 0.0 | 0.00 | 0.00 | 0.00 | 27 | 1012.0 |
| 20260504215615 | 79 | 70 | 0.0 | 2.0 | 0.00 | 0.00 | 0.00 | 33 | 1014.8 |
| 20260504215113 | 80 | 72 | 0.0 | 1.0 | 0.00 | 0.00 | 0.00 | 30 | 1015.1 |
| 20260504214609 | 79 | 93 | 1.0 | 1.0 | 0.00 | 0.00 | 0.00 | 31 | 1015.1 |
| 20260504214105 | 79 | 105 | 2.0 | 4.0 | 0.00 | 0.00 | 0.00 | 31 | 1015.1 |
| 20260504213601 | 80 | 250 | 3.0 | 7.0 | 0.00 | 0.00 | 0.00 | 29 | 1015.0 |
| 20260504213059 | 80 | 66 | 0.0 | 3.0 | 0.00 | 0.00 | 0.00 | 30 | 1015.1 |
| 20260504212554 | 78 | 61 | 1.0 | 2.0 | 0.00 | 0.00 | 0.00 | 29 | 1015.2 |
| 20260504212052 | 78 | 35 | 2.0 | 2.0 | 0.00 | 0.00 | 0.00 | 29 | 1015.1 |
| 20260504211549 | 78 | 203 | 2.0 | 6.0 | 0.00 | 0.00 | 0.00 | 29 | 1015.0 |
| 20260504211046 | 78 | 76 | 0.0 | 1.0 | 0.00 | 0.00 | 0.00 | 33 | 1015.1 |
| 20260504210542 | 79 | 66 | 0.0 | 2.0 | 0.00 | 0.00 | 0.00 | 31 | 1015.1 |
| 20260504210039 | 80 | 116 | 2.0 | 4.0 | 0.00 | 0.00 | 0.00 | 29 | 1015.1 |
| 20260504210002 | 79 | 187 | 0.0 | 0.0 | 0.00 | 0.00 | 0.00 | 23 | 1012.1 |
| 20260504205537 | 80 | 111 | 1.0 | 2.0 | 0.00 | 0.00 | 0.00 | 26 | 1015.0 |
| 20260504205035 | 81 | 283 | 2.0 | 3.0 | 0.00 | 0.00 | 0.00 | 27 | 1015.1 |
| 20260504204533 | 80 | 104 | 0.0 | 1.0 | 0.00 | 0.00 | 0.00 | 29 | 1015.3 |
| 20260504204032 | 80 | 92 | 0.0 | 3.0 | 0.00 | 0.00 | 0.00 | 31 | 1015.3 |
| 20260504203529 | 80 | 81 | 0.0 | 3.0 | 0.00 | 0.00 | 0.00 | 29 | 1015.3 |
| 20260504203027 | 79 | 75 | 0.0 | 3.0 | 0.00 | 0.00 | 0.00 | 30 | 1015.5 |
| 20260504203002 | 78 | 179 | 0.0 | 0.0 | 0.00 | 0.00 | 0.00 | 27 | 1012.2 |
| 20260504202522 | 78 | 312 | 2.0 | 3.0 | 0.00 | 0.00 | 0.00 | 31 | 1015.4 |
| 20260504202019 | 78 | 217 | 4.0 | 4.0 | 0.00 | 0.00 | 0.00 | 31 | 1015.4 |
| 20260504201516 | 79 | 93 | 2.0 | 3.0 | 0.00 | 0.00 | 0.00 | 31 | 1015.5 |
| 20260504201014 | 79 | 115 | 1.0 | 1.0 | 0.00 | 0.00 | 0.00 | 29 | 1015.5 |
| 20260504200510 | 79 | 92 | 1.0 | 3.0 | 0.00 | 0.00 | 0.00 | 30 | 1015.8 |
| 20260504200007 | 80 | 59 | 1.0 | 4.0 | 0.00 | 0.00 | 0.00 | 29 | 1015.6 |
| 20260504200002 | 79 | 192 | 0.0 | 0.0 | 0.00 | 0.00 | 0.00 | 25 | 1012.5 |
| 20260504195503 | 80 | 105 | 0.0 | 6.0 | 0.00 | 0.00 | 0.00 | 30 | 1015.5 |
| 20260504195000 | 81 | 243 | 3.0 | 4.0 | 0.00 | 0.00 | 0.00 | 29 | 1015.7 |
| 20260504194455 | 81 | 61 | 0.0 | 2.0 | 0.00 | 0.00 | 0.00 | 30 | 1015.8 |
| 20260504193951 | 81 | 73 | 1.0 | 2.0 | 0.00 | 0.00 | 0.00 | 29 | 1015.9 |
| 20260504193449 | 80 | 93 | 1.0 | 2.0 | 0.00 | 0.00 | 0.00 | 30 | 1016.0 |
| 20260504193002 | 78 | 153 | 0.0 | 0.0 | 0.00 | 0.00 | 0.00 | 27 | 1012.9 |
| 20260504192948 | 80 | 113 | 0.0 | 3.0 | 0.00 | 0.00 | 0.00 | 29 | 1016.1 |
| 20260504192444 | 79 | 101 | 1.0 | 2.0 | 0.00 | 0.00 | 0.00 | 30 | 1016.1 |
| 20260504191943 | 80 | 132 | 2.0 | 3.0 | 0.00 | 0.00 | 0.00 | 31 | 1016.1 |
| 20260504191441 | 79 | 58 | 1.0 | 1.0 | 0.00 | 0.00 | 0.00 | 33 | 1016.2 |
| 20260504190935 | 78 | 169 | 2.0 | 3.0 | 0.00 | 0.00 | 0.00 | 31 | 1016.1 |
| 20260504190431 | 78 | 113 | 1.0 | 2.0 | 0.00 | 0.00 | 0.00 | 33 | 1016.4 |
| 20260504190003 | 77 | 317 | 0.0 | 0.0 | 0.00 | 0.00 | 0.00 | 28 | 1013.2 |
| 20260504185928 | 78 | 56 | 2.0 | 4.0 | 0.00 | 0.00 | 0.00 | 32 | 1016.2 |
| 20260504185426 | 78 | 300 | 2.0 | 4.0 | 0.00 | 0.00 | 0.00 | 31 | 1016.4 |
| 20260504184921 | 78 | 114 | 2.0 | 3.0 | 0.00 | 0.00 | 0.00 | 33 | 1016.6 |
| 20260504184417 | 78 | 98 | 0.0 | 2.0 | 0.00 | 0.00 | 0.00 | 32 | 1016.7 |
| 20260504183913 | 79 | 70 | 1.0 | 2.0 | 0.00 | 0.00 | 0.00 | 29 | 1016.6 |
| 20260504183411 | 79 | 61 | 1.0 | 3.0 | 0.00 | 0.00 | 0.00 | 30 | 1016.7 |
| 20260504183002 | 78 | 187 | 0.0 | 0.0 | 0.00 | 0.00 | 0.00 | 26 | 1013.4 |
| 20260504182909 | 79 | 71 | 0.0 | 2.0 | 0.00 | 0.00 | 0.00 | 31 | 1016.5 |
| 20260504182405 | 78 | 178 | 2.0 | 3.0 | 0.00 | 0.00 | 0.00 | 32 | 1016.6 |
| 20260504181902 | 79 | 322 | 2.0 | 3.0 | 0.00 | 0.00 | 0.00 | 28 | 1016.8 |
| 20260504181359 | 79 | 264 | 3.0 | 4.0 | 0.00 | 0.00 | 0.00 | 32 | 1016.7 |
| 20260504180858 | 78 | 148 | 1.0 | 2.0 | 0.00 | 0.00 | 0.00 | 32 | 1016.8 |
| 20260504180356 | 78 | 105 | 1.0 | 2.0 | 0.00 | 0.00 | 0.00 | 30 | 1016.8 |
| 20260504180002 | 77 | 207 | 0.0 | 0.0 | 0.00 | 0.00 | 0.00 | 25 | 1013.7 |
| 20260504175854 | 78 | 273 | 1.0 | 2.0 | 0.00 | 0.00 | 0.00 | 28 | 1016.7 |
| 20260504175350 | 78 | 57 | 1.0 | 2.0 | 0.00 | 0.00 | 0.00 | 30 | 1017.0 |
| 20260504174849 | 77 | 97 | 1.0 | 2.0 | 0.00 | 0.00 | 0.00 | 32 | 1017.0 |
| 20260504174346 | 78 | 163 | 3.0 | 6.0 | 0.00 | 0.00 | 0.00 | 29 | 1017.0 |
| 20260504173843 | 77 | 57 | 1.0 | 2.0 | 0.00 | 0.00 | 0.00 | 32 | 1017.0 |
| 20260504173340 | 76 | 63 | 1.0 | 4.0 | 0.00 | 0.00 | 0.00 | 32 | 1017.1 |
| 20260504173003 | 75 | 277 | 0.0 | 0.0 | 0.00 | 0.00 | 0.00 | 28 | 1013.9 |
| 20260504172837 | 77 | 325 | 2.0 | 6.0 | 0.00 | 0.00 | 0.00 | 30 | 1017.1 |
| 20260504172333 | 77 | 57 | 1.0 | 1.0 | 0.00 | 0.00 | 0.00 | 35 | 1017.2 |
| 20260504171829 | 76 | 53 | 2.0 | 2.0 | 0.00 | 0.00 | 0.00 | 32 | 1017.5 |
| 20260504171326 | 75 | 56 | 2.0 | 3.0 | 0.00 | 0.00 | 0.00 | 32 | 1017.4 |
| 20260504170824 | 75 | 63 | 1.0 | 4.0 | 0.00 | 0.00 | 0.00 | 31 | 1017.6 |
| 20260504170320 | 75 | 30 | 2.0 | 4.0 | 0.00 | 0.00 | 0.00 | 30 | 1017.4 |
| 20260504160239 | 73 | 97 | 2.0 | 2.0 | 0.00 | 0.00 | 0.00 | 34 | 1018.5 |
| 20260504150704 | 70 | 149 | 2.0 | 2.0 | 0.00 | 0.00 | 0.00 | 40 | 1018.6 |
| 20260504150201 | 70 | 128 | 2.0 | 2.0 | 0.00 | 0.00 | 0.00 | 39 | 1018.8 |
| 20260504141130 | 68 | 276 | 2.0 | 6.0 | 0.00 | 0.00 | 0.00 | 40 | 1018.7 |
| 20260504140627 | 67 | 277 | 2.0 | 2.0 | 0.00 | 0.00 | 0.00 | 43 | 1018.6 |
| 20260504140122 | 67 | 66 | 1.0 | 2.0 | 0.00 | 0.00 | 0.00 | 45 | 1018.7 |
| 20260504130550 | 59 | 68 | 0.0 | 0.0 | 0.00 | 0.00 | 0.00 | 74 | 1019.0 |
| 20260504110438 | 46 | 54 | 0.0 | 0.0 | 0.00 | 0.00 | 0.00 | 89 | 1018.2 |
| 20260504100401 | 45 | 59 | 0.0 | 0.0 | 0.00 | 0.00 | 0.00 | 92 | 1017.9 |